Terug naar catalogus

STARLINK-5172

ActiefCommunicatieVLEO
NORAD 54064·PAYLOAD·🇺🇸 United States

Gelanceerd Oct 20, 2022 vanaf Cape Canaveral Space Force Station

Loading…

Volgende Passages (komende 24 uur)

TLE

VersSource: CelesTrak SupGP

Epoch: Sep 15, 2026, 02:16 UTC

1 54064C 22136P   26258.09493056  .00010836  00000+0  34827-3 0  2584
2 54064  53.1577 155.6780 0000958  81.5004  67.9618 15.31714546    16

Volg STARLINK-5172 in realtime met AllMySat

Download on the App Store